Date,TemperatureHighF,TemperatureAvgF,TemperatureLowF,DewpointHighF,DewpointAvgF,DewpointLowF,HumidityHigh,HumidityAvg,HumidityLow,PressureMaxIn,PressureMinIn,WindSpeedMaxMPH,WindSpeedAvgMPH,GustSpeedMaxMPH,PrecipitationSumIn
2013-1-1,28.0,20.2,9.0,13.0,4.2,-2.0,71,50,34,0.00,40.00,20,11,26,0.00
2013-1-2,27.0,18.6,6.0,13.0,3.4,-5.0,72,51,32,0.00,40.00,26,11,32,0.00
2013-1-3,36.0,18.2,5.0,-2.0,-7.1,-20.0,56,34,11,0.00,40.00,17,8,21,0.00
2013-1-4,35.0,20.4,11.0,6.0,-3.2,-9.0,46,35,27,0.00,40.00,17,7,23,0.00
2013-1-5,34.0,18.8,3.0,4.0,-2.5,-9.0,59,39,26,0.00,40.00,14,7,19,0.00
2013-1-6,51.0,32.8,7.0,3.0,-5.4,-33.0,52,22,10,0.00,40.00,28,12,40,0.00
2013-1-7,45.0,36.5,23.0,3.0,-2.6,-9.0,24,18,14,0.00,40.00,31,17,39,0.00
2013-1-8,44.0,38.0,34.0,12.0,8.2,3.0,36,28,22,0.00,40.00,30,21,42,0.00
2013-1-9,55.0,45.6,37.0,13.0,8.5,0.0,35,22,11,0.00,40.00,29,18,40,0.00
2013-1-10,55.0,45.4,30.0,9.0,2.0,-1.0,31,16,11,0.00,40.00,29,10,39,0.00
2013-1-11,39.0,14.0,4.0,16.0,1.0,-25.0,71,56,22,0.00,40.00,20,9,29,0.00
2013-1-12,10.0,4.4,-3.0,-2.0,-6.0,-14.0,67,61,40,0.00,40.00,22,8,29,0.00
2013-1-13,12.0,1.5,-4.0,-5.0,-9.0,-41.0,69,61,11,0.00,40.00,9,4,12,0.00
2013-1-14,12.0,3.0,-11.0,-7.0,-12.3,-18.0,68,50,35,0.00,40.00,23,10,30,0.00
2013-1-15,30.0,21.4,9.0,7.0,0.4,-13.0,42,39,35,0.00,40.00,23,17,32,0.00
2013-1-16,43.0,30.5,21.0,9.0,4.8,0.0,44,33,18,0.00,40.00,26,13,34,0.00
2013-1-17,47.0,31.6,17.0,7.0,1.7,-2.0,47,30,15,0.00,40.00,26,10,33,0.00
2013-1-18,51.0,41.3,33.0,-1.0,-3.2,-7.0,20,15,10,0.00,40.00,28,17,35,0.00
2013-1-19,50.0,38.8,27.0,0.0,-3.0,-9.0,24,16,10,0.00,40.00,22,12,29,0.00
2013-1-20,39.0,28.5,10.0,8.0,3.1,-5.0,74,36,18,0.00,40.00,17,7,32,0.00
2013-1-21,50.0,35.5,10.0,9.0,0.8,-6.0,75,28,10,0.00,40.00,26,14,34,0.00
2013-1-22,54.0,42.0,26.0,-1.0,-5.9,-10.0,20,13,10,0.00,40.00,22,13,29,0.00
2013-1-23,58.0,48.5,41.0,2.0,-5.7,-11.0,10,10,10,0.00,40.00,22,12,31,0.00
2013-1-24,54.0,46.9,34.0,23.0,8.1,-9.0,61,23,10,0.00,40.00,36,21,53,0.00
2013-1-25,52.0,42.5,35.0,22.0,17.4,14.0,56,37,23,0.00,40.00,27,17,36,0.00
2013-1-26,54.0,45.3,38.0,20.0,17.4,16.0,40,32,24,0.00,40.00,24,14,34,0.00
2013-1-27,54.0,44.7,37.0,23.0,19.0,15.0,46,36,25,0.00,40.00,25,10,31,0.00
2013-1-28,42.0,27.8,20.0,24.0,19.0,5.0,81,70,34,0.00,40.00,13,5,18,0.00
2013-1-29,27.0,17.6,9.0,9.0,-0.0,-33.0,67,47,11,0.00,40.00,16,7,24,0.00
2013-1-30,33.0,22.6,2.0,12.0,3.6,-18.0,67,44,31,0.00,40.00,23,12,31,0.00
2013-1-31,33.0,26.7,20.0,17.0,12.4,6.0,69,54,40,0.00,40.00,18,6,28,0.00